Flag Weather past 2 weeks in Nettetal, North Rhine-Westphalia, Germany

Now
45 °F

Light rain. Fog.


Feels Like: 39 °F
Forecast: 41 / 49 °F
Wind: 10 mph from Southeast

Location: Monchengladbach Airport

Current Time: Nov 27, 2014 at 5:29:07 PM

Latest Report: Nov 27, 2014 at 4:50 PM


Visibility: 3 mi

Pressure: 29.74 "Hg

Humidity: 87%

Dew point: 41 °F

Location of NettetalLocation

Historic Weather in Nettetal — Graph

°F

Nettetal temperature yesterday

Maximum temperature yesterday: 45 °F (at 2:50 PM)
Minimum temperature yesterday: 39 °F (at 7:50 AM)
Average temperature yesterday: 42 °F

Past Weeks' High & Low Weather Summary

 TemperatureHumidityPressure
High55 °F (Nov 13, 1:20 PM)100% (Nov 12, 6:20 PM)30.33 "Hg (Nov 12, 6:20 PM)
Low27 °F (Nov 25, 8:20 AM)62% (Nov 21, 2:20 PM)29.50 "Hg (Nov 16, 4:50 PM)
Average47 °F86%29.94 "Hg
* Reported Nov 12 4:20 PM — Nov 27 4:20 PM, Nettetal, Weather by CustomWeather, © 2014

Note: Actual official high and low records may vary slightly from our data, if they occured in-between our weather recording intervals... More about our weather records

Advertising

Nettetal weather history for previous 24 hours

 ConditionsComfort  
Time TempWeatherWind HumidityBarometerVisibility
4:20 PM
Nov 27
45 °FLight rain. Fog.9 mph87%29.74 "Hg3 mi
3:50 PM45 °FLight rain. Passing clouds.9 mph87%29.74 "Hg4 mi
3:20 PM46 °FLight rain. Passing clouds.9 mph82%29.74 "Hg5 mi
2:50 PM46 °FPassing clouds.10 mph82%29.74 "HgN/A
2:20 PM46 °FPassing clouds.12 mph82%29.74 "HgN/A
1:50 PM46 °FLight rain. Clear.10 mph82%29.74 "Hg5 mi
1:20 PM46 °FClear.7 mph82%29.74 "Hg5 mi
12:50 PM45 °FLight rain. Clear.9 mph81%29.77 "Hg5 mi
12:20 PM46 °FPassing clouds.8 mph76%29.77 "HgN/A
11:50 AM45 °FClear.10 mph81%29.77 "Hg10 mi
11:20 AM45 °FPassing clouds.8 mph81%29.77 "HgN/A
10:50 AM45 °FPassing clouds.8 mph81%29.80 "HgN/A
10:20 AM45 °FPassing clouds.10 mph81%29.80 "HgN/A
9:50 AM45 °FPassing clouds.9 mph81%29.80 "HgN/A
9:20 AM43 °FPassing clouds.8 mph81%29.80 "HgN/A
8:50 AM43 °FPassing clouds.8 mph81%29.80 "HgN/A
8:20 AM43 °FPassing clouds.8 mph81%29.80 "HgN/A
7:50 AM43 °FPassing clouds.8 mph81%29.80 "HgN/A
7:50 PM
Nov 26
43 °FPassing clouds.12 mph81%29.92 "HgN/A
7:20 PM43 °FPassing clouds.12 mph81%29.92 "HgN/A
6:50 PM43 °FPassing clouds.10 mph81%29.92 "HgN/A
6:20 PM43 °FPassing clouds.12 mph81%29.92 "HgN/A
5:50 PM41 °FPassing clouds.10 mph87%29.92 "HgN/A
5:20 PM41 °FLight rain. Passing clouds.10 mph87%29.92 "Hg4 mi
Weather by CustomWeather, © 2014

See weather overviewHow to use our weather pages